TimeCST,TemperatureF,Dew PointF,Humidity,Sea Level PressureIn,VisibilityMPH,Wind Direction,Wind SpeedMPH,Gust SpeedMPH,PrecipitationIn,Events,Conditions,WindDirDegrees,DateUTC
12:53 AM,36.0,30.9,82,29.72,10.0,South,4.6,-,N/A,,Clear,170,2014-02-14 06:53:00
1:53 AM,34.0,28.9,82,29.71,10.0,Calm,Calm,-,N/A,,Clear,0,2014-02-14 07:53:00
2:53 AM,37.0,32.0,82,29.69,10.0,Calm,Calm,-,N/A,,Clear,0,2014-02-14 08:53:00
3:53 AM,41.0,34.0,76,29.71,10.0,North,8.1,-,N/A,,Partly Cloudy,360,2014-02-14 09:53:00
4:53 AM,37.0,32.0,82,29.66,9.0,North,3.5,-,N/A,,Partly Cloudy,10,2014-02-14 10:53:00
6:53 AM,42.1,34.0,73,29.75,10.0,NW,4.6,-,N/A,,Clear,310,2014-02-14 12:53:00
7:53 AM,46.0,34.0,63,29.78,10.0,NW,15.0,26.5,N/A,,Clear,320,2014-02-14 13:53:00
8:53 AM,48.9,34.0,56,29.84,10.0,North,17.3,25.3,N/A,,Clear,350,2014-02-14 14:53:00
9:53 AM,53.1,33.1,47,29.89,10.0,North,20.7,28.8,N/A,,Clear,350,2014-02-14 15:53:00
10:53 AM,55.0,33.1,43,29.93,10.0,NNW,18.4,29.9,N/A,,Clear,340,2014-02-14 16:53:00
11:53 AM,57.9,30.9,36,29.95,10.0,North,18.4,32.2,N/A,,Clear,360,2014-02-14 17:53:00
12:53 PM,61.0,30.0,31,29.95,10.0,North,19.6,28.8,N/A,,Clear,350,2014-02-14 18:53:00
1:53 PM,60.1,28.0,30,29.96,10.0,North,21.9,32.2,N/A,,Clear,350,2014-02-14 19:53:00
2:53 PM,60.1,26.1,27,29.97,10.0,North,20.7,32.2,N/A,,Clear,350,2014-02-14 20:53:00
3:53 PM,60.1,28.0,30,29.98,10.0,North,19.6,27.6,N/A,,Clear,350,2014-02-14 21:53:00
4:53 PM,57.0,28.9,34,30.02,10.0,NNE,17.3,-,N/A,,Clear,20,2014-02-14 22:53:00
5:53 PM,52.0,28.0,40,30.04,10.0,North,8.1,-,N/A,,Clear,10,2014-02-14 23:53:00
6:53 PM,45.0,30.0,56,30.08,10.0,NNE,9.2,-,N/A,,Clear,20,2014-02-15 00:53:00
7:53 PM,42.1,28.9,60,30.09,10.0,NE,11.5,-,N/A,,Clear,40,2014-02-15 01:53:00
8:53 PM,37.0,27.0,67,30.09,10.0,NE,6.9,-,N/A,,Clear,40,2014-02-15 02:53:00
9:53 PM,30.9,24.1,76,30.10,10.0,ENE,3.5,-,N/A,,Clear,60,2014-02-15 03:53:00
10:53 PM,32.0,26.1,79,30.12,10.0,Calm,Calm,-,N/A,,Clear,0,2014-02-15 04:53:00
11:53 PM,35.1,27.0,72,30.12,10.0,Calm,Calm,-,N/A,,Clear,0,2014-02-15 05:53:00